Lid_Strength_Index
1 0 -1 -2 -1 -1 -1 -1 -1 -1 -1 -1 -1 -1 -1 -2 -2 -2 -2 -2 -2 -1 -2 -2 -1 -1 -1 -1 -1 -2 -2 -2 -2 -2 -2 -2 -2 -2 -2 -2 -2 -1 -2
1 0 -1 -1 -2 -1 -1 -1 -1 -1 -1 -1 -1 -1 -1 -1 -2 -2 -2 -2 -2 -1 -1 -2 -1 -1 -1 -1 -1 -1 -1 -2 -2 -2 -2 -2 -2 -2 -2 -2 -2 -1 -2
1 -0 -1 -1 -2 -1 -1 -1 -1 -1 -1 -1 -1 -1 -1 -2 -2 -2 -2 -2 -2 -2 -1 -2 -2 -1 -1 -1 -1 -1 -1 -1 -1 -2 -2 -0 -0 -2 -2 -2 -2 -2 -2
0 -0 -0 -0 -1 -1 -1 -1 -1 -1 -1 -1 -1 -1 -1 -2 -2 -2 -2 -2 -2 -1 -2 -1 -2 -1 -1 -1 -1 -1 -1 -1 -2 -2 -0 -0 -0 -1 -2 -2 -1 -2 -1
1 -0 -0 -0 -1 -1 -1 -1 -1 -1 -1 -2 -2 -2 -1 -1 -2 -2 -2 -2 -2 -2 -2 -1 -2 -1 -1 -1 -1 -1 -1 -1 -1 -0 1 1 0 -1 -1 -1 -0 -1 -1
1 0 0 -1 -1 -1 -1 -1 -1 -1 -1 -1 -2 -2 -1 -2 -2 -2 -2 -2 -2 -2 -2 -1 -2 -1 -1 -1 -1 -1 -1 -1 -1 1 2 1 0 -1 -1 -0 0 0 -0
1 0 -0 -0 -1 -1 -1 -1 -1 -1 -1 -1 -2 -2 -2 -2 -2 -2 -2 -2 -2 -2 -2 -1 -2 -1 -1 -1 -1 -1 -1 -1 -0 2 3 2 0 -1 -1 -1 -1 -1 -1
0 -0 -0 1 0 -1 -1 -1 -1 -1 -1 -1 -1 -1 -2 -2 -2 -2 -2 -2 -2 -2 -2 -2 -2 -1 -1 -1 -1 -0 -0 0 2 3 2 2 -2 -1 -1 -1 -1 -1 -1
-0 0 -0 -0 -0 1 0 -0 -1 -1 -1 -1 -1 -1 -1 -1 -2 -2 -2 -2 -2 -2 -2 -2 -2 -1 -1 -1 -0 -0 0 1 3 4 2 2 -2 -1 -1 -1 -1 -1 -1
2 0 0 -0 -0 -0 -0 1 1 0 0 -0 -0 -0 0 -0 -1 -1 -1 -2 -2 -2 -2 -2 -2 -1 -1 -1 -1 -0 1 1 4 5 3 2 -1 -0 -1 -1 -1 -1 -1
7 6 1 0 0 -0 -0 1 1 1 1 1 1 1 2 0 -0 0 0 -1 -2 -2 -2 -2 -2 -2 -1 -1 -0 -0 1 3 4 5 4 -0 -1 -0 -1 -1 -1 -1 -1
9 8 6 0 0 -0 -0 0 1 -0 -0 -0 -0 0 0 0 1 -0 1 0 -1 -1 -1 -2 -2 -1 -0 2 2 1 2 3 3 4 2 -1 -1 -1 -1 -1 -1 -1 -1
9 8 7 6 0 -0 -0 -0 0 1 -0 -0 0 0 0 0 1 1 1 1 0 1 0 -0 -0 0 1 3 4 4 3 4 3 3 2 -0 -1 -2 -2 -1 -1 -1 -1
8 7 8 7 6 0 -0 -0 -0 1 1 0 0 0 0 0 1 1 1 1 1 0 1 1 1 1 2 3 3 3 4 3 3 3 2 1 -1 -1 -2 -2 -1 -1 -1
7 6 4 3 2 2 0 -0 -0 0 0 1 0 -0 0 0 1 1 1 0 0 1 1 1 1 1 2 3 3 3 3 2 2 3 2 2 0 -1 -2 -2 -1 -2 -2
7 7 5 4 3 3 4 4 3 -0 -0 1 1 0 0 0 0 1 1 1 0 1 1 1 2 2 3 2 2 3 3 3 2 2 2 2 1 -1 -1 -2 -2 -2 -2
8 7 7 5 3 4 4 4 4 5 -0 0 0 1 0 0 0 0 1 1 1 0 1 2 2 2 3 3 3 3 3 2 2 2 2 2 1 1 -0 -1 -1 -1 -1
8 8 7 6 6 5 4 4 4 4 4 0 0 0 -0 -0 0 0 1 1 1 1 2 3 3 4 4 4 4 4 3 2 2 2 2 2 1 0 1 -1 -1 -1 -1
9 9 9 7 7 6 5 5 4 5 5 7 8 6 1 -0 -0 0 0 0 0 1 1 3 3 4 5 5 4 4 3 3 2 2 2 2 1 0 0 1 1 0 -1
9 9 9 8 8 7 5 5 5 4 5 5 6 7 7 7 1 0 0 0 0 1 1 2 3 3 4 4 3 3 3 3 2 3 3 2 1 0 1 -0 1 2 2
9 9 9 9 8 8 7 7 7 7 6 6 5 7 7 7 7 4 0 0 0 1 1 2 3 3 4 3 4 5 3 3 3 3 3 3 2 1 1 -0 2 4 3
10 10 9 8 8 8 7 6 6 6 6 5 6 6 7 6 6 7 8 6 1 1 1 2 3 3 3 3 4 4 6 4 3 3 4 2 3 2 4 5 6 6 5
10 10 9 8 8 8 7 7 6 7 7 6 6 7 7 7 6 7 6 6 6 1 2 2 2 3 4 3 2 4 7 7 5 4 7 7 7 7 7 7 7 8 8
10 9 8 8 8 7 7 8 8 8 9 8 6 8 7 7 7 6 6 6 7 4 2 2 2 2 3 5 4 3 4 4 6 7 7 9 9 9 9 9 9 9 9
9 9 9 8 8 7 8 8 8 9 8 7 6 6 9 7 7 6 6 6 6 7 2 2 2 2 2 3 4 4 4 4 3 6 9 11 11 11 11 11 11 11 11
9 9 8 8 8 8 8 8 9 9 9 8 7 7 6 8 7 7 6 6 6 7 5 2 2 3 3 3 3 3 4 5 5 5 7 10 11 12 12 12 12 12 12